• In Colombia
  • List of Countries
  • For 7 days
  • Water Temperature
  • Weather Map
  • Weather Widgets
  • user-avatar
    Login

    Hourly Weather Newcastle

    Today, 19 January, Sunday

    Time Temperature Precipitation Wind Pressure Humidity
    00:00 +20°C° 0.2 mm 3 mps 755 mmHg 96%
    01:00 +20°C° 0.2 mm 3 mps 755 mmHg 96%
    02:00 +20°C° 0.5 mm 3 mps 755 mmHg 96%
    03:00 +20°C° 0.5 mm 3 mps 754 mmHg 96%
    04:00 +20°C° 0 mm 3 mps 754 mmHg 97%
    05:00 +21°C° 0.4 mm 3 mps 754 mmHg 95%
    06:00 +21°C° 0.4 mm 2 mps 755 mmHg 94%
    07:00 +23°C° 0.4 mm 2 mps 755 mmHg 93%
    08:00 +24°C° 0.4 mm 2 mps 755 mmHg 87%
    09:00 +26°C° 0.4 mm 2 mps 754 mmHg 81%
    10:00 +26°C° 0 mm 3 mps 755 mmHg 78%
    11:00 +26°C° 0.1 mm 4 mps 754 mmHg 75%
    12:00 +27°C° 0.1 mm 5 mps 753 mmHg 72%
    13:00 +27°C° 0.1 mm 5 mps 753 mmHg 69%
    14:00 +27°C° 0 mm 5 mps 752 mmHg 69%
    15:00 +27°C° 0 mm 5 mps 752 mmHg 69%
    16:00 +27°C° 0 mm 4 mps 752 mmHg 70%
    17:00 +26°C° 0 mm 3 mps 752 mmHg 77%
    18:00 +25°C° 0 mm 3 mps 752 mmHg 83%
    19:00 +24°C° 0 mm 2 mps 752 mmHg 90%
    20:00 +23°C° 0 mm 1 mps 753 mmHg 92%
    21:00 +23°C° 0 mm 1 mps 753 mmHg 94%
    22:00 +20°C° 0 mm 0 mps 753 mmHg 95%
    23:00 +20°C° 0 mm 0 mps 753 mmHg 96%

    Tomorrow, 20 January, Monday

    Time Temperature Precipitation Wind Pressure Humidity
    00:00 +20°C° 0 mm 0 mps 752 mmHg 96%
    01:00 +19°C° 0 mm 0 mps 752 mmHg 97%
    02:00 +19°C° 0 mm 0 mps 752 mmHg 97%
    03:00 +19°C° 0 mm 0 mps 752 mmHg 97%
    04:00 +19°C° 0 mm 0 mps 751 mmHg 97%
    05:00 +20°C° 0 mm 0 mps 752 mmHg 94%
    06:00 +23°C° 0 mm 1 mps 752 mmHg 91%
    07:00 +24°C° 0 mm 1 mps 752 mmHg 87%
    08:00 +27°C° 0 mm 1 mps 752 mmHg 76%
    09:00 +29°C° 0 mm 1 mps 752 mmHg 65%
    10:00 +32°C° 0 mm 1 mps 752 mmHg 54%
    11:00 +34°C° 0 mm 2 mps 751 mmHg 50%
    12:00 +35°C° 0 mm 3 mps 751 mmHg 45%
    13:00 +36°C° 0 mm 4 mps 750 mmHg 41%
    14:00 +35°C° 0 mm 4 mps 749 mmHg 46%
    15:00 +33°C° 0 mm 4 mps 749 mmHg 51%
    16:00 +32°C° 0 mm 4 mps 748 mmHg 55%
    17:00 +30°C° 0 mm 5 mps 749 mmHg 59%
    18:00 +29°C° 0 mm 6 mps 749 mmHg 63%
    19:00 +28°C° 0 mm 7 mps 750 mmHg 66%
    20:00 +27°C° 0 mm 5 mps 750 mmHg 68%
    21:00 +26°C° 0 mm 4 mps 751 mmHg 69%
    22:00 +25°C° 0 mm 3 mps 751 mmHg 70%
    23:00 +24°C° 0 mm 3 mps 751 mmHg 64%

    Day after tomorrow, 21 January, Tuesday

    Time Temperature Precipitation Wind Pressure Humidity
    00:00 +22°C° 0 mm 3 mps 752 mmHg 58%
    01:00 +21°C° 0 mm 3 mps 752 mmHg 52%
    02:00 +21°C° 0 mm 3 mps 752 mmHg 52%
    03:00 +20°C° 0 mm 3 mps 752 mmHg 53%
    04:00 +20°C° 0 mm 3 mps 752 mmHg 53%
    05:00 +21°C° 0 mm 3 mps 753 mmHg 52%
    06:00 +22°C° 0 mm 3 mps 754 mmHg 50%
    07:00 +23°C° 0 mm 4 mps 754 mmHg 48%
    08:00 +27°C° 0 mm 4 mps 754 mmHg 42%
    09:00 +30°C° 0 mm 4 mps 754 mmHg 35%
    10:00 +33°C° 0 mm 4 mps 754 mmHg 29%
    11:00 +34°C° 0 mm 4 mps 754 mmHg 26%
    12:00 +35°C° 0 mm 4 mps 754 mmHg 24%
    13:00 +36°C° 0 mm 5 mps 753 mmHg 21%
    14:00 +37°C° 0 mm 5 mps 753 mmHg 21%
    15:00 +37°C° 0 mm 5 mps 753 mmHg 21%
    16:00 +37°C° 0 mm 5 mps 753 mmHg 21%
    17:00 +34°C° 0 mm 5 mps 754 mmHg 29%
    18:00 +32°C° 0 mm 4 mps 754 mmHg 36%
    19:00 +29°C° 0 mm 4 mps 755 mmHg 44%
    20:00 +27°C° 0 mm 3 mps 755 mmHg 55%
    21:00 +25°C° 0 mm 3 mps 756 mmHg 66%
    22:00 +22°C° 0 mm 3 mps 756 mmHg 77%
    23:00 +22°C° 0 mm 3 mps 756 mmHg 81%

    22 January, Wednesday

    Time Temperature Precipitation Wind Pressure Humidity
    00:00 +22°C° 0 mm 3 mps 756 mmHg 85%
    01:00 +21°C° 0 mm 3 mps 756 mmHg 89%
    02:00 +21°C° 0 mm 3 mps 756 mmHg 91%
    03:00 +20°C° 0 mm 3 mps 756 mmHg 93%
    04:00 +20°C° 0 mm 3 mps 756 mmHg 95%
    05:00 +21°C° 0 mm 3 mps 757 mmHg 90%
    06:00 +22°C° 0 mm 3 mps 757 mmHg 85%
    07:00 +24°C° 0 mm 3 mps 758 mmHg 80%
    08:00 +27°C° 0 mm 3 mps 757 mmHg 69%
    09:00 +30°C° 0 mm 2 mps 757 mmHg 58%
    10:00 +34°C° 0 mm 2 mps 757 mmHg 48%
    11:00 +35°C° 0 mm 2 mps 756 mmHg 41%
    12:00 +36°C° 0 mm 3 mps 756 mmHg 35%
    13:00 +37°C° 0 mm 3 mps 755 mmHg 29%
    14:00 +37°C° 0 mm 4 mps 755 mmHg 28%
    15:00 +37°C° 0 mm 5 mps 754 mmHg 28%
    16:00 +39°C° 0 mm 6 mps 753 mmHg 27%
    17:00 +35°C° 0 mm 6 mps 753 mmHg 33%
    18:00 +33°C° 0 mm 6 mps 754 mmHg 39%
    19:00 +30°C° 0 mm 7 mps 754 mmHg 45%
    20:00 +28°C° 0 mm 6 mps 754 mmHg 53%
    21:00 +26°C° 0 mm 5 mps 754 mmHg 62%
    22:00 +25°C° 0 mm 5 mps 754 mmHg 71%
    23:00 +23°C° 0 mm 4 mps 754 mmHg 72%

    23 January, Thursday

    Time Temperature Precipitation Wind Pressure Humidity
    00:00 +22°C° 0 mm 4 mps 754 mmHg 73%
    01:00 +22°C° 0 mm 3 mps 753 mmHg 75%
    02:00 +22°C° 0 mm 3 mps 753 mmHg 68%
    03:00 +22°C° 0 mm 3 mps 753 mmHg 61%
    04:00 +24°C° 0 mm 3 mps 752 mmHg 55%
    05:00 +25°C° 0 mm 3 mps 752 mmHg 53%
    06:00 +27°C° 0 mm 4 mps 753 mmHg 51%
    07:00 +28°C° 0 mm 4 mps 753 mmHg 50%
    08:00 +32°C° 0 mm 5 mps 752 mmHg 44%
    09:00 +35°C° 0 mm 6 mps 752 mmHg 39%
    10:00 +39°C° 0 mm 7 mps 752 mmHg 34%
    11:00 +41°C° 0 mm 7 mps 751 mmHg 30%
    12:00 +43°C° 0 mm 7 mps 751 mmHg 25%
    13:00 +44°C° 0 mm 8 mps 751 mmHg 21%
    14:00 +43°C° 0 mm 7 mps 750 mmHg 23%
    15:00 +41°C° 0 mm 6 mps 750 mmHg 25%
    16:00 +40°C° 0 mm 5 mps 750 mmHg 26%
    17:00 +39°C° 0 mm 5 mps 750 mmHg 30%
    18:00 +36°C° 0 mm 5 mps 751 mmHg 34%
    19:00 +34°C° 0 mm 5 mps 751 mmHg 39%
    20:00 +33°C° 0.1 mm 4 mps 752 mmHg 42%
    21:00 +33°C° 0.1 mm 4 mps 753 mmHg 46%
    22:00 +32°C° 0.1 mm 4 mps 753 mmHg 50%
    23:00 +29°C° 0 mm 4 mps 753 mmHg 55%

    24 January, Friday

    Time Temperature Precipitation Wind Pressure Humidity
    00:00 +28°C° 0 mm 3 mps 754 mmHg 60%
    01:00 +27°C° 0 mm 3 mps 754 mmHg 66%
    02:00 +26°C° 0.1 mm 3 mps 754 mmHg 71%
    03:00 +25°C° 0.1 mm 3 mps 754 mmHg 76%
    04:00 +24°C° 0.1 mm 3 mps 754 mmHg 81%
    05:00 +25°C° 0 mm 3 mps 755 mmHg 78%
    06:00 +26°C° 0 mm 3 mps 755 mmHg 75%
    07:00 +26°C° 0 mm 2 mps 756 mmHg 72%
    08:00 +27°C° 0.2 mm 2 mps 756 mmHg 67%
    09:00 +29°C° 0.2 mm 2 mps 756 mmHg 62%
    10:00 +30°C° 0.2 mm 1 mps 756 mmHg 57%
    11:00 +32°C° 0 mm 2 mps 756 mmHg 52%
    12:00 +35°C° 0 mm 3 mps 755 mmHg 48%
    13:00 +36°C° 0 mm 4 mps 755 mmHg 43%
    14:00 +37°C° 0 mm 5 mps 754 mmHg 41%
    15:00 +38°C° 0 mm 6 mps 754 mmHg 40%
    16:00 +38°C° 0 mm 7 mps 754 mmHg 38%
    17:00 +35°C° 0 mm 6 mps 754 mmHg 48%
    18:00 +32°C° 0 mm 5 mps 755 mmHg 57%
    19:00 +29°C° 0 mm 5 mps 755 mmHg 66%
    20:00 +28°C° 0 mm 4 mps 756 mmHg 75%
    21:00 +26°C° 0 mm 3 mps 756 mmHg 84%
    22:00 +25°C° 0 mm 2 mps 756 mmHg 93%
    23:00 +24°C° 0 mm 2 mps 756 mmHg 95%
    Show more